Location: Goettingen
(51.5300°N, 9.9433°E)
Time: 00:45:02
(UTC+02:00)

ISS - Pass Details

Date: 23 May 2017
Orbit: 402 x 408 km, 51.6° (Epoch: 30 May)

Event Time Altitude Azimuth Distance (km) Brightness Sun altitude
Rises 22:43:44 0° 210° (SSW) 2,323 -0.2 -10.3°
Reaches altitude 10° 22:46:11 10° 192° (SSW) 1,466 -1.4 -10.5°
Maximum altitude 22:48:37 19° 144° (SE) 1,032 -2.4 -10.8°
Drops below altitude 10° 22:51:03 10° 96° (E) 1,470 -1.4 -11.0°
Sets 22:53:31 0° 78° (ENE) 2,333 -0.2 -11.2°
